Weather in Dribin

Belarus     54°07′05″N   31°05′30″E
temp.,
°C
wind,
m/s
gust,
m/s
humid.,
%
clouds,
%
prec.,
mm/h
press.,
hPa
HPBL,
m
10 april, sat
sat1000:00+2s5127950 0.0 1023231
03:00+2s5137774 0.0 1023275
06:00+1s5147798 0.0 1023309
09:00+5s7146576 0.0 1023611
12:00+9ssw913475 0.0 10221488
15:00+11ssw911425 0.0 10211771
18:00+11ssw610495 0.0 10211082
21:00+6s4126716 0.0 1022228
11 april, sun
sun1100:00+5s513695 0.0 1023268
03:00+4s512755 0.0 1024231
06:00+3s410805 0.0 1025176
09:00+8ssw58645 0.0 1026298
12:00+13ssw57513 0.0 1027774
15:00+15ssw56460 0.0 10271289
18:00+14s35520 0.0 1027345
21:00+9sse36670 0.0 102981
12 april, mon
mon1200:00+7sse34700 0.0 102959
03:00+6se34740 0.0 103065
06:00+4se34780 0.0 102951
09:00+9se46640 0.0 1028305
12:00+13ese57465 0.0 1026947
15:00+14se5638100 0.0 10241166
18:00+12se4661100 0.0 1022414
21:00+8se4790100 0.1 1023310
13 april, tue
tue1300:00+8sse3895100 1.1 1022362
03:00+8sse2497100 2.5 1021163
06:00+8se1198100 2.1 102026
09:00+9ene1297100 2.8 1020108
12:00+13e228087 0.0 1019569
15:00+15nne017177 0.0 1018818
18:00+14e227698 0.3 101775
21:00+12e118467 0.3 101815
14 april, wed
wed1400:00+9se229151 0.0 101814
03:00+9e22906 0.0 101710
06:00+8ene229382 0.0 101725
09:00+11ene458791 0.1 1017312
12:00+10e3597100 0.6 1017269
15:00+12s2381100 0.8 1017410
18:00+12e2381100 0.9 101691
21:00+10sse2280100 1.0 101724